PROFILE

 METAR AND TAF INFORMATION
ADDS - METARS form results

(1351 UTC 25 September 2022)
http://aviationweather.gov/metar/data/
 
TNCM 251300Z 09008KT 050V120 9999 FEW016 31/23 Q1015 NOSIG
TNCM 251000Z 2512/2612 07010KT 9999 SCT018 

 AIRPORT MAP

 RUNWAY INFORMATION
Runway 10 Runway length 7546 ft Runway width 150 ft
Runway elevation 13 ft Runway displaced threshold 0 ft Runway heading 96
Runway 28 Runway length 7546 ft Runway width 150 ft
Runway elevation 9 ft Runway displaced threshold 328 ft Runway heading 276

 AIRPORT FREQUENCIES
Type APP Name JULIANA AP Frequency 128.95 MHZ
Type TWR Name JULIANA TW Frequency 118.7 MHZ

 AIRPORT NEAR NAVIGATION AIDS
Type NDB Name St.mMarten Frequency 284 KHZ
Type VOR-DME Name St.mMarten Frequency 113000 KHZ